Hourly Weather Roundup
Issued by NWS Central Illinois

Home | Current Version | Previous Version | Text Only | Print | Product List | Glossary On
Versions: 1 2 3 4 5 6 7 8 9 10 11 12 13 14 15 16 17 18 19 20 21 22 23 24 25 26 27 28 29 30 31 32 33 34 35 36 37 38 39 40 41 42 43 44 45 46 47 48 49 50
000
NZUS43 KILX 260510
HWRILX

AREA WEATHER ROUNDUP
NATIONAL WEATHER SERVICE, LINCOLN IL
1100 PM CST TUE NOV 25 2014


CITY           SKY/WX    TMP DP  RH WIND       PRES   REMARKS
BLOOMINGTON    CLEAR     22  19  88 S7        30.17F WCI  14
CHAMPAIGN      CLEAR     21  19  92 E7        30.18F WCI  12
DECATUR        CLEAR     24  21  88 SE3       30.18F
FLORA          CLEAR     25  24  99 CALM      30.20F
GALESBURG      CLEAR     19  18  96 E5        30.15F WCI  12
JACKSONVILLE   CLEAR     27  23  84 SE5       30.16S WCI  22
LACON          CLEAR     18  15  88 CALM      30.18S
LAWRENCEVILLE  CLEAR     28  24  85 NE5       30.20F WCI  23
LITCHFIELD     CLEAR     26  23  88 SE5       30.16F WCI  20
$$


CITY           SKY/WX    TMP DP  RH WIND       PRES   REMARKS
LINCOLN        CLEAR     25  22  91 SE3       30.19F
MACOMB         CLEAR     22  21  96 SE5       30.18S WCI  16
MATTOON        CLEAR     26  22  84 CALM      30.18F
MT CARMEL AP   CLEAR     32  25  74 CALM      30.20F
OLNEY-NOBLE AP CLEAR     27  25  93 CALM      30.20F
PARIS          CLOUDY    28  24  84 CALM      30.21F
PEORIA         CLEAR     24  18  77 SE3       30.18S
PONTIAC        CLEAR     21  19  92 SE6       30.19F WCI  14
RANTOUL        CLEAR     24  21  88 SE6       30.18F WCI  17
ROBINSON       PTCLDY    27  23  83 NE3       30.22F
SPRINGFIELD    CLEAR     27  24  89 SE8       30.17F WCI  19
TAYLORVILLE    CLEAR     27  23  86 SE6       30.17F WCI  20
$$

...REGIONAL REPORTS...


CITY           SKY/WX    TMP DP  RH WIND       PRES   REMARKS
CHICAGO O`HARE PTCLDY    19  16  88 S6        30.19S WCI  11
KANKAKEE       CLOUDY   N/A N/A N/A S3        30.21F
MOLINE         FAIR      11   7  84 E8        30.15F WCI  -1
MOUNT VERNON   CLEAR     23  19  86 CALM      30.19F
PITTSFIELD     CLEAR     27  23  84 CALM      30.16S
QUINCY         CLEAR     24  19  81 SE7       30.13F WCI  16
ROCKFORD       CLEAR     11   8  88 CALM      30.19R
$$


CITY           SKY/WX    TMP DP  RH WIND       PRES   REMARKS
BURLINGTON     CLEAR     23  20  88 SE6       30.13F WCI  16
CEDAR RAPIDS   CLEAR     18  16  92 SE7       30.09F WCI   9
DES MOINES     CLOUDY    31  15  52 SE9       30.00F WCI  23
KIRKSVILLE     PTCLDY    27  20  75 SE7       30.08F WCI  19
OTTUMWA        PTCLDY    23  18  81 SE7       30.07F WCI  15
ST LOUIS       PTCLDY    28  21  75 SE5       30.17F WCI  23
$$


CITY           SKY/WX    TMP DP  RH WIND       PRES   REMARKS
TERRE HAUTE    CLOUDY    28  21  75 CALM      30.20F
EVANSVILLE     CLEAR     29  25  85 N3        30.20F
INDIANAPOLIS   CLOUDY    26  21  81 W6        30.18F WCI  19
LAFAYETTE      CLOUDY    25  19  78 SW3       30.20F
MADISON        CLEAR     14  12  92 W3        30.15R
MILWAUKEE      CLOUDY    20  14  77 S6        30.18R WCI  12
$$





USA.gov is the U.S. government's official web portal to all federal, state and local government web resources and services.